Location: Domont
(49.0278°N, 2.3264°E)
Time: 11:36:55
(UTC+00:00)

NOAA 18 - Pass Details

Date: 01 July 2022
Orbit: 839 x 860 km, 98.9° (Epoch: 10 August)

Event Time Altitude Azimuth Distance (km) Brightness Sun altitude
Exits shadow 20:56:40 - 150° (SSE) 2,576 7.1 -7.7°
Reaches altitude 10° 20:56:56 10° 150° (SSE) 2,478 7.0 -7.8°
Maximum altitude 21:02:22 64° 70° (ENE) 945 5.4 -8.3°
Drops below altitude 10° 21:07:52 10° 350° (N) 2,506 8.8 -8.9°
Sets 21:10:16 0° 348° (NNW) 3,449 9.7 -9.1°
